Total_Precipitation_Accumulation
1.00 1.17 1.55 2.09 2.17 2.62 2.85 2.83 3.15 3.65 3.71 3.35 2.97 3.32 3.56 3.74 4.10 3.85 3.67 3.96 4.02 4.02 4.49 4.71 4.39 4.93 5.23 5.30 5.04 4.84 4.93 5.26 4.90 2.91 2.51 2.48 2.58 2.51 2.25 2.14 1.98 1.69 1.80
2.04 2.37 2.39 2.71 2.96 2.82 3.00 2.92 2.67 3.68 3.90 3.67 3.63 3.24 3.68 3.53 3.19 3.00 2.89 2.87 3.17 3.18 3.40 4.17 4.37 4.59 4.33 3.99 4.06 3.82 3.82 4.04 4.86 3.83 3.08 2.89 2.72 2.46 2.17 2.23 2.29 2.03 1.71
2.52 2.74 2.46 2.75 2.81 3.04 2.88 2.76 2.63 2.50 3.12 3.12 3.19 3.13 2.64 3.05 2.79 2.55 2.55 2.71 2.58 2.85 3.02 2.85 2.67 2.91 3.21 3.22 3.24 3.08 3.20 3.44 3.66 3.80 3.43 3.22 3.14 2.82 2.56 2.38 2.43 2.34 2.13
1.66 1.66 1.98 2.09 1.95 1.95 1.84 2.02 2.21 2.24 2.10 1.99 2.15 2.31 2.26 1.93 2.04 1.92 1.79 1.65 1.74 1.70 1.87 2.23 2.22 2.34 2.80 2.96 2.74 2.58 2.76 3.15 3.44 3.66 3.44 3.18 2.91 2.68 2.37 2.43 2.79 3.04 2.82
1.63 1.53 1.58 1.87 1.98 1.52 1.37 1.39 1.76 1.73 1.80 2.00 2.03 2.13 2.41 2.26 2.18 2.27 2.19 1.76 1.61 1.57 1.33 1.25 1.49 2.11 2.58 2.69 2.95 2.59 2.62 2.89 2.92 3.19 3.29 3.26 3.15 3.01 2.88 2.47 2.63 3.11 3.42
1.34 1.33 1.34 1.27 1.31 1.34 1.33 1.17 1.21 1.43 1.59 1.74 2.00 2.44 2.71 2.86 2.85 2.36 1.98 1.77 1.64 1.45 1.37 1.21 1.22 1.83 1.87 2.28 2.79 2.86 2.85 3.32 3.16 3.01 3.00 3.05 2.77 2.79 2.72 2.73 2.98 3.22 3.59
1.17 1.27 1.15 1.06 1.04 1.11 1.07 0.98 0.94 1.10 1.27 1.51 1.71 1.74 1.83 2.13 2.67 2.32 1.99 1.46 1.34 1.45 1.42 1.35 1.38 1.57 2.08 1.67 2.27 2.53 2.56 3.08 3.33 3.12 3.06 2.67 2.65 2.60 2.66 2.81 2.69 2.83 3.07
0.95 1.03 1.09 0.99 0.93 0.98 0.89 0.88 0.85 0.86 0.89 0.83 0.82 0.85 0.87 1.03 1.54 1.62 1.72 1.44 1.48 1.53 1.52 1.75 1.98 1.82 2.12 2.52 2.21 2.10 2.08 2.26 2.68 2.78 2.80 2.83 2.98 2.83 2.61 2.57 2.66 3.12 3.19
1.00 1.05 1.07 0.98 0.85 0.92 0.99 1.08 1.05 0.96 0.86 0.74 0.61 0.52 0.49 0.48 0.77 0.80 0.89 0.76 1.05 1.36 1.45 1.62 2.13 2.15 2.81 2.61 2.13 2.26 2.33 2.36 2.90 2.97 2.83 2.84 2.83 2.80 2.74 3.08 3.07 2.91 3.31
1.10 1.09 1.09 1.05 1.11 1.14 1.14 1.19 1.20 1.07 1.04 1.10 1.02 0.81 1.00 0.82 1.20 1.04 0.98 0.73 0.88 0.92 1.01 1.15 1.76 1.86 2.33 2.24 2.09 2.05 2.12 2.20 2.40 2.53 2.56 2.34 2.11 2.16 2.37 2.28 2.37 3.12 3.22
1.46 1.28 1.44 1.31 1.11 0.97 0.94 0.85 1.04 1.08 1.10 1.22 1.42 1.44 1.26 1.41 1.57 1.81 1.52 1.08 1.26 1.02 1.08 1.23 1.55 2.52 2.24 2.26 2.23 2.54 3.15 2.76 2.70 2.39 2.49 2.65 2.53 2.27 2.18 2.27 2.22 2.58 2.87
2.01 1.95 1.75 2.03 1.83 1.52 1.22 1.02 0.88 1.23 1.66 1.75 1.68 1.67 1.56 1.59 2.25 2.09 1.90 2.16 2.47 2.23 2.40 2.47 2.81 2.80 2.54 2.80 2.91 3.43 3.20 2.87 2.48 2.59 2.54 2.70 2.64 2.66 2.50 2.23 2.12 2.18 2.27
1.85 2.21 2.25 2.10 2.16 1.87 1.66 1.47 1.37 1.22 1.27 1.51 1.75 1.92 1.96 1.87 2.30 2.76 2.47 2.44 2.55 2.43 2.95 3.31 3.24 2.78 2.47 2.61 3.14 3.13 2.93 2.92 3.05 3.06 2.96 2.89 2.36 2.02 1.86 1.80 1.62 1.42 1.57
1.66 1.54 1.52 1.70 1.84 1.96 2.05 2.02 1.91 1.94 1.94 2.09 2.29 2.53 2.52 2.42 2.39 2.53 2.71 2.76 2.91 3.17 3.72 3.88 3.82 3.46 3.32 3.33 3.27 3.06 2.93 3.15 3.16 2.92 2.55 2.17 1.95 1.65 1.62 1.61 1.84 1.75 1.92
0.83 0.69 0.69 0.91 1.17 1.46 1.91 2.49 2.55 2.82 2.85 2.76 2.89 2.83 2.95 3.13 3.47 3.27 3.04 3.08 3.21 3.43 3.27 3.09 2.92 2.56 2.23 2.01 1.84 1.87 1.89 1.80 2.01 2.06 2.08 1.94 1.80 1.76 1.74 1.51 1.55 1.60 1.89
0.52 0.51 0.61 0.61 0.78 1.06 1.44 2.06 2.86 3.26 3.28 3.27 3.31 3.19 3.41 3.62 3.59 3.21 3.09 3.15 3.12 2.90 2.52 2.27 2.18 2.14 2.14 2.12 1.99 1.77 1.59 1.88 2.01 2.17 2.26 2.14 2.12 2.04 2.00 1.88 1.90 1.95 1.90
0.89 0.83 0.95 1.08 1.16 1.38 1.61 1.85 2.44 2.97 3.11 3.27 3.28 3.25 3.21 3.31 3.09 2.95 2.84 2.73 2.59 2.22 2.31 2.29 2.30 2.35 2.38 2.31 2.34 2.44 2.64 2.67 2.45 2.38 2.48 2.56 2.59 2.61 2.66 2.26 2.13 1.97 1.91
1.85 1.77 1.74 1.95 2.04 2.07 2.07 2.16 2.18 2.18 2.11 2.12 2.11 1.96 1.95 1.97 1.93 1.95 2.03 2.11 2.36 2.21 2.08 2.08 2.22 2.38 2.46 2.65 2.79 2.84 2.69 2.54 2.53 2.61 2.62 2.57 2.55 2.52 2.53 2.32 2.13 2.04 1.98
1.31 1.51 1.41 1.37 1.28 1.22 1.15 1.18 1.18 1.19 1.18 1.20 1.11 1.03 1.02 1.03 1.04 1.08 1.09 1.27 1.40 1.50 1.65 1.70 1.72 1.84 2.03 2.24 2.55 2.82 3.10 3.19 3.10 2.81 2.81 2.93 2.83 2.63 2.56 2.44 2.26 2.10 1.91
0.98 1.11 1.02 0.99 1.06 0.97 0.82 0.74 0.70 0.68 0.71 0.67 0.64 0.71 0.67 0.64 0.61 0.69 0.85 0.99 1.08 1.11 1.15 1.24 1.25 1.29 1.42 1.63 1.89 2.15 2.26 2.45 2.59 2.66 2.78 2.82 2.97 2.80 2.80 2.65 2.41 2.34 2.03
0.95 0.91 0.83 0.69 0.65 0.62 0.59 0.57 0.55 0.63 0.64 0.59 0.53 0.55 0.51 0.52 0.54 0.62 0.68 0.77 0.78 0.87 0.94 0.99 1.03 1.09 1.12 1.18 1.22 1.40 1.65 1.92 2.26 2.53 2.65 2.69 2.74 2.88 2.68 2.59 2.46 2.19 2.06
0.65 0.60 0.54 0.53 0.51 0.48 0.43 0.39 0.44 0.48 0.48 0.51 0.53 0.64 0.73 0.74 0.60 0.57 0.57 0.59 0.63 0.68 0.79 0.92 0.95 0.99 1.04 1.13 1.16 1.22 1.22 1.35 1.62 2.18 2.44 2.43 2.44 2.54 2.55 2.50 2.40 2.30 2.18
0.40 0.41 0.39 0.39 0.39 0.37 0.39 0.38 0.45 0.48 0.50 0.52 0.53 0.56 0.63 0.69 0.67 0.67 0.67 0.64 0.66 0.71 0.67 0.76 0.79 0.73 0.73 0.84 0.94 1.13 1.24 1.29 1.43 1.79 2.12 2.08 2.09 2.28 2.26 2.25 2.13 2.13 2.02
0.28 0.30 0.32 0.31 0.34 0.35 0.36 0.40 0.45 0.51 0.56 0.56 0.55 0.58 0.64 0.70 0.72 0.72 0.75 0.76 0.78 0.77 0.79 0.84 0.77 0.78 0.78 0.72 0.74 0.83 0.95 1.06 1.16 1.33 1.60 1.67 1.64 1.82 1.93 2.04 1.98 1.98 2.02
0.25 0.30 0.33 0.37 0.40 0.46 0.49 0.49 0.48 0.41 0.43 0.47 0.49 0.51 0.50 0.57 0.65 0.78 0.83 0.80 0.81 0.86 0.91 0.94 0.91 0.87 0.92 0.95 0.97 0.88 0.89 0.99 1.13 1.32 1.43 1.41 1.30 1.31 1.56 1.81 1.85 1.98 2.02
0.26 0.32 0.35 0.40 0.47 0.48 0.49 0.46 0.43 0.39 0.41 0.41 0.41 0.44 0.48 0.52 0.61 0.68 0.69 0.69 0.75 0.85 0.93 0.99 0.99 0.91 0.86 0.83 0.89 0.93 0.91 0.98 1.07 1.21 1.41 1.35 1.26 1.23 1.29 1.44 1.51 1.69 1.67